Notices

What's New in latest Release from April 7th, 2021:

- Updated Glossary, including Speed of Maximum Gust, and Total Hourly Precipitation

- Updated national and regional climate services offices contacts and prices information

- Addition of station inventory lists for 1981-2010, 1971-2000, and 1961-1990 Normals.

If you haven't already, please take our survey and provide feedback about our website: https://eccc.sondage-survey.ca/f/LanguageSelection.aspx?s=442ca660-fcf1-47c0-95a9-59707d6fd709

Hourly Data Report for July 27, 2018

OTTAWA INTL A
ONTARIO
Current Station Operator: NAVCAN

45°19'00.000" N
75°40'00.000" W
114.90 m
6106001
71628
YOW

Download Data

Hourly Data (July 2018)
Hourly Data Report for July 27, 2018
TIME
LST
Temp Definition
°C
Dew Point Definition
°C
Rel Hum Definition
%
Precip. Amount Definition
mm

Wind Dir Definition
10's deg

Wind Spd Definition
km/h
Visibility Definition
km
Stn Press Definition
kPa
Hmdx Definition


Wind Chill Definition


Weather Definition


00:00 18.9 15.7 82   33 4 24.1 99.71     LegendNANA
01:00 17.1 15.6 91   21 4 24.1 99.68     Mainly Clear
02:00 17.1 16.1 94   27 5 24.1 99.67     LegendNANA
03:00 17.4 16.1 92   30 4 24.1 99.66     LegendNANA
04:00 16.0 15.4 96   26 4 24.1 99.71     Mainly Clear
05:00 15.8 15.3 97   28 6 24.1 99.76     LegendNANA
06:00 17.8 16.1 90   18 8 24.1 99.80     LegendNANA
07:00 20.4 17.8 85   23 10 24.1 99.82 26   Mostly Cloudy
08:00 21.4 18.0 81   23 14 24.1 99.88 27   LegendNANA
09:00 23.1 18.1 73   25 9 24.1 99.86 29   LegendNANA
10:00 24.3 18.3 69   19 12 24.1 99.87 31   Mostly Cloudy
11:00 25.6 18.2 63   19 16 24.1 99.86 32   LegendNANA
12:00 27.3 17.6 55   16 18 24.1 99.79 33   LegendNANA
13:00 27.7 18.9 58   18 21 24.1 99.75 34   Mostly Cloudy
14:00 25.9 17.9 61   18 21 24.1 99.76 32   LegendNANA
15:00 22.3 19.2 82   23 5 24.1 99.80 29   LegendNANA
16:00 24.1 18.2 69   24 15 24.1 99.82 30   Mostly Cloudy
17:00 26.2 15.9 53   22 26 24.1 99.80 31   LegendNANA
18:00 25.6 16.1 55   20 10 24.1 99.81 30   LegendNANA
19:00 23.5 15.3 59   19 11 24.1 99.81 28   Mainly Clear
20:00 21.4 15.4 68   16 10 24.1 99.87 26   LegendNANA
21:00 21.4 15.6 69   21 9 24.1 99.94 26   LegendNANA
22:00 21.0 16.1 73   23 8 24.1 99.97 26   Mostly Cloudy
23:00 20.3 15.9 75   36 2 24.1 99.97 25   LegendNANA

Notes on Data Quality.

Legend

  • E = Estimated
  • M = Missing
  • NA = Not Available*
  • [empty] = Indicates an unobserved value
Date modified: